Find Starlink 34385

NORAD ID: 64352 Int'l Des: 2025-126 Owner: SPXS Country: US Constellation: starlink operational
LEOCIRCULAR

現在のビュー

3D地球を読み込み中...

About Starlink 34385

Starlink 34385 (NORAD 64352) is a starlink constellation satellite (v2 mini) launched Jun 13, 2025 by SPXS of US. It operates in LEO, CIRCULAR orbit with a mass of 575.00 kg.

Starlink 34385について

説明を読み込み中...

次回通過

Passes for default location (London). Set your location on the main map for personalized predictions.

高度履歴

Loading altitude history...

軌道要素

1 64352U 25126J 26194.83305771 .00002157 00000-0 18850-3 0 9992
2 64352 70.0004 76.5387 0002752 269.1819 90.9024 14.98335877 59576
Epoch: Jul 13, 2026 • Age: 11 hours

現在のステータス

高度 594.3 km
遠地点 / 近地点 N/A
速度 7.56 km/s
衛星直下点 -64.98°S, 86.98°W
打ち上げ日 Jun 13, 2025
運用期間 1 year
タイプ internet

技術仕様

分類 Payload
質量 575.00 kg
乾燥質量 530.00 kg
総質量 575.00 kg
長さ 0.30 m
直径 4.10 m
スパン 29.00 m
形状 Box + pan
製造者 SPXS
バスタイプ Starlink V2MO
フェーズステータス In Orbit
所有者/国 SPXS/US

Most Searched